This is the latest recevied weather packets stored in our database for station/object W7TTE. If no packets are shown the sender has not sent any weather packets the latest 10 day(s).
| Time | Temp. | Humidity | Pressure | Rain* | Wind** | Luminosity | Snow |
|---|---|---|---|---|---|---|---|
| 1777774233 | 31.11° C | 19% | 1011 hPa | 0 mm | - | 4 W/m² | - |
| 1777773930 | 31.67° C | 18% | 1010.9 hPa | 0 mm | - | 7 W/m² | - |
| 1777773627 | 31.67° C | 19% | 1010.8 hPa | 0 mm | - | 8 W/m² | - |
| 1777773323 | 31.67° C | 19% | 1010.9 hPa | 0 mm | - | 10 W/m² | - |
| 1777773021 | 31.67° C | 19% | 1011 hPa | 0 mm | - | 15 W/m² | - |
| 1777772716 | 31.67° C | 18% | 1010.9 hPa | 0 mm | - | 23 W/m² | - |
| 1777772415 | 32.22° C | 18% | 1011.1 hPa | 0 mm | - | 23 W/m² | - |
| 1777772111 | 32.22° C | 18% | 1011.1 hPa | 0 mm | - | 23 W/m² | - |
| 1777771809 | 32.22° C | 18% | 1011 hPa | 0 mm | - | 29 W/m² | - |
| 1777771506 | 32.78° C | 17% | 1011.1 hPa | 0 mm | - | 40 W/m² | - |
| 1777771202 | 32.78° C | 17% | 1011.2 hPa | 0 mm | - | 42 W/m² | - |
| 1777770899 | 32.78° C | 17% | 1011.1 hPa | 0 mm | - | 45 W/m² | - |
| 1777770596 | 32.78° C | 17% | 1011.2 hPa | 0 mm | - | 50 W/m² | - |
| 1777770293 | 32.78° C | 17% | 1011.1 hPa | 0 mm | - | 63 W/m² | - |
| 1777769990 | 32.78° C | 17% | 1011.1 hPa | 0 mm | - | 63 W/m² | - |
| 1777769687 | 32.78° C | 17% | 1011.2 hPa | 0 mm | - | 58 W/m² | - |
| 1777769384 | 33.33° C | 17% | 1011.3 hPa | 0 mm | - | 57 W/m² | - |
| 1777769081 | 33.33° C | 17% | 1011.3 hPa | 0 mm | - | 66 W/m² | - |
| 1777768778 | 33.33° C | 17% | 1011.5 hPa | 0 mm | - | 82 W/m² | - |
| 1777768475 | 33.89° C | 16% | 1011.3 hPa | 0 mm | - | 103 W/m² | - |
| 1777768172 | 33.89° C | 16% | 1011.4 hPa | 0 mm | - | 108 W/m² | - |
| 1777767869 | 33.89° C | 17% | 1011.4 hPa | 0 mm | - | 113 W/m² | - |
| 1777767565 | 33.89° C | 17% | 1011.4 hPa | 0 mm | - | 110 W/m² | - |
| 1777767262 | 33.89° C | 17% | 1011.5 hPa | 0 mm | - | 115 W/m² | - |
| 1777766960 | 33.89° C | 18% | 1011.6 hPa | 0 mm | - | 126 W/m² | - |
* Rain latest hour (hover to see other rain measurements)
** Current wind speed in m/s (hover to see current wind gust speed)